Location: Petrozavodsk
(61.7857°N, 34.3593°E)
Time: 03:53:08
(UTC+03:00)

Terra - Pass Details

Date: 28 October 2019
Orbit: 701 x 703 km, 98.2° (Epoch: 13 November)

Event Time Altitude Azimuth Distance (km) Brightness Sun altitude
Exits shadow 20:42:40 23° 18° (NNE) 1,483 3.5 -27.3°
Drops below altitude 10° 20:45:06 10° 353° (N) 2,185 4.7 -27.6°
Sets 20:47:37 0° 342° (NNW) 3,107 5.8 -27.9°
